Other Public Products
Issued by NWS Grand Forks, ND

Home | Current Version | Previous Version | Graphics & Text | Print | Product List | Glossary On
Versions: 1 2 3 4 5 6 7 8 9 10 11 12 13 14 15 16 17 18 19 20 21 22 23 24 25 26 27 28 29 30 31 32 33 34 35 36 37 38 39 40 41 42 43 44 45 46 47 48 49 50
000
FPUS83 KFGF 172031
OPUFGF
PRAIRIE TO PINES WEATHER ROUNDUP
NATIONAL WEATHER SERVICE EASTERN NORTH DAKOTA/GRAND FORKS ND
300 PM CDT WED SEP 17 2014

 **SATELLITE DATA USED TO AUGMENT SKY COVER AT AUTOMATED STATIONS**
 *****  WEATHER ACROSS EASTERN NORTH DAKOTA  *****

CITY           SKY/WX    TMP DP  RH WIND       PRES   REMARKS
GRAND FORKS    MOSUNNY   64  50  60 N13       30.01S
GRAND FORKS AF MOSUNNY   61  52  72 NE13G20   30.03S
GRAND CITY NWS   N/A     64 N/A N/A VRB3        N/A
BUXTON           N/A     69  53  56 N10         N/A
DEVILS LAKE    SUNNY     61  46  59 E9        30.01S
FARGO          SUNNY     73  49  42 N9        29.96S
WAHPETON ARPT  CLEAR     73  37  27 E6        29.95S
$$

 *****  WEATHER ACROSS CENTRAL AND WESTERN NORTH DAKOTA  *****

CITY           SKY/WX    TMP DP  RH WIND       PRES   REMARKS
JAMESTOWN      SUNNY     72  47  40 VRB3      29.97S
BISMARCK       MOSUNNY   76  49  38 S7        29.97S
MINOT          SUNNY     70  49  47 NE9       29.99S
MINOT AFB      SUNNY     67  50  54 NE12      29.99S
GARRISON         N/A     73  45  36 SE8       29.98S
WILLISTON      SUNNY     78  41  26 SE13      29.94S
DICKINSON      CLOUDY    68  47  46 E14       29.95F
HETTINGER      PTSUNNY   71  48  43 SE8       29.97F
$$

 *****  OTHER OBSERVATIONS NORTHEAST NORTH DAKOTA  *****

CITY           SKY/WX    TMP DP  RH WIND       PRES   REMARKS
WALHALLA         N/A     54  45  71 NE10      30.08S
LANGDON        FAIR      55  43  62 NE9G17    30.05F
CAVALIER       FAIR      55  45  67 NE8       30.07S
GRAFTON        FAIR      57  46  67 N10       30.04S
CANDO          FAIR      63  46  55 E9        30.04S
FORT TOTTEN    NOT AVBL
ROLLA          FAIR      57  45  62 E8        30.06S
RUGBY          FAIR      63  48  59 E12G17    30.02S
 ***** THE ABOVE OBSERVATIONS ARE NON NWS ARE NOT QUALITY
        CONTROLLED AND MAY MIS-REPORT RAIN FOR SNOW...
$$

 *****  OTHER OBSERVATIONS SOUTHEAST NORTH DAKOTA *****

CITY           SKY/WX    TMP DP  RH WIND       PRES   REMARKS
COOPERSTOWN    NOT AVBL
VALLEY CITY    FAIR      70  48  46 NE8       29.98S
OAKES            N/A     73  46  38 NE13      29.97S
GWINNER        CLEAR     73  46  38 NE9       29.97S
BUFFALO          N/A     69  46  43 NE12        N/A
WYNDMERE       NOT AVBL
 ***** THE ABOVE OBSERVATIONS ARE NON NWS ARE NOT QUALITY
       CONTROLLED AND MAY MIS-REPORT RAIN FOR SNOW...
$$

  *****  WEATHER ACROSS NORTHERN MINNESOTA  *****

CITY           SKY/WX    TMP DP  RH WIND       PRES   REMARKS
FLAG ISLAND    CLOUDY    46  37  71 NE6       30.08S
WARROAD        CLOUDY    48  43  81 NE12      30.09R
ROSEAU         CLOUDY    54  43  66 E12       30.07R
HALLOCK        MOSUNNY   61  46  59 NE8       30.04S
THF RVR FALLS  SUNNY     61  46  59 NE9       30.02R
HALSTAD          N/A     74  45  35 NE12        N/A
FOSSTON        SUNNY     70  54  56 NE6       30.00R
BAUDETTE       MOSUNNY   54  43  66 N15       30.06R
WASKISH        MOSUNNY   63  46  55 CALM      30.01S
CROOKSTON      SUNNY     64  50  59 NE8       30.01R
$$
  *****  WEATHER ACROSS CENTRAL AND WEST MINNESOTA  *****

CITY           SKY/WX    TMP DP  RH WIND       PRES   REMARKS
BEMIDJI        MOSUNNY   66  51  58 NE9       29.98S
PARK RAPIDS    SUNNY     72  44  36 N7        29.95F
WADENA         SUNNY     72  46  40 CALM      29.96R
DETROIT LAKES  SUNNY     72  45  37 CALM      29.97S
MOORHEAD       SUNNY     73  48  40 N9        29.97S
FERGUS FALLS   SUNNY     72  46  40 E5        29.95S
ELBOW LAKE     FAIR      71  53  53 E8        29.95S
MORRIS MN      SUNNY     75  52  43 NE5       29.93S
STAPLES        SUNNY     70  46  43 SE3       29.96S
WHEATON        MOSUNNY   70  52  52 NE6       29.96S
$$
  *****  WEATHER ELSEWHERE ACROSS MINNESOTA  *****

CITY           SKY/WX    TMP DP  RH WIND       PRES   REMARKS
DULUTH         PTSUNNY   52  45  77 E15G21    30.00R
INTRNTL FALLS  CLOUDY    53  41  63 NE9       30.05R
ELY            CLOUDY    52  45  76 NE7       30.02R
CLOQUET        MOSUNNY   54  46  76 E12G17    29.99R
BRAINERD       SUNNY     70  46  42 NE3       29.96S
HIBBING        MOSUNNY   63  49  60 N10       29.98R
ALEXANDRIA     MOSUNNY   72  53  51 E5        29.97S
SAINT CLOUD    PTSUNNY   74  53  48 CALM      29.94S
MINNEAPOLIS    MOSUNNY   75  52  44 VRB5      29.94S
$$

  *****  WEATHER ACROSS SOUTH DAKOTA  *****

CITY           SKY/WX    TMP DP  RH WIND       PRES   REMARKS
SIOUX FALLS    PTSUNNY   77  56  48 E7        29.92S
BROOKINGS      NOT AVBL
WATERTOWN      MOSUNNY   72  52  49 MISG      29.95S
HURON          SUNNY     78  49  35 N8        29.92S
SISSETON         N/A     74  53  48 NE10      29.94S
ABERDEEN       SUNNY     71  49  45 NE10      29.95F
MITCHELL       SUNNY     77  57  50 N7        29.93S
PIERRE         SUNNY     80  51  36 E12G20    29.90F
MOBRIDGE       PTSUNNY   76  48  37 VRB7      29.92F
RAPID CITY     MOSUNNY   76  49  38 S5        29.95F
$$

  *****  SOME WEATHER IN NEARBY STATES *****

CITY           SKY/WX    TMP DP  RH WIND       PRES   REMARKS
GLASGOW MT     SUNNY     76  49  38 SE12      29.87F
GREAT FALLS MT SUNNY     82  48  30 S6        29.86F
CHEYENNE WY    MOSUNNY   86  26  11 W9        30.09F
SCOTTSBLUFF NE SUNNY     87  41  19 VRB3      29.96F
OMAHA NE       MOSUNNY   77  60  55 SE6       29.90F
DES MOINES IA  PTSUNNY   75  57  53 SE6       29.93F
DAVENPORT IA   SUNNY     69  50  50 S7        29.98F
CHICAGO IL     MOSUNNY   68  44  42 SW8       29.99F
EAU CLAIRE WI  PTSUNNY   71  50  47 S5        29.95S
LA CROSSE WI   PTSUNNY   71  52  50 S10       29.95F
$$

  *****  SOME NATIONAL WEATHER *****

CITY           SKY/WX    TMP DP  RH WIND       PRES   REMARKS
LA GUARDIA NY  MOSUNNY   72  42  34 W9        29.95F
RALEIGH NC     MOSUNNY   77  63  61 E7        29.93S
ATLANTA GA     MOSUNNY   86  61  42 NW13      29.91F
NEW ORLEANS LA CLOUDY    88  69  53 N7        29.94S HX  92
OKLAHOMA CITY  PTSUNNY   92  66  42 SW12      29.90F HX  94
ALBUQUERQUE NM CLOUDY    66  58  75 NW7       30.18F
SALT LAKE CITY MOSUNNY   91  39  16 S10       29.94F
LOS ANGELES CA MOSUNNY   81  62  52 W12       29.76F
BOISE ID       CLOUDY    86  39  19 VRB3      29.84F
SEATTLE WA     CLOUDY    70  56  61 N5        29.77F
$$

*** WEATHER ACROSS MANITOBA...SASKATCHEWAN AND ONTARIO ***
                ***ONTARIO***

CITY           SKY/WX    TMP DP  RH WIND       PRES   REMARKS
GERALDTON      PTSUNNY   43  28  56 NW7       30.06F
THUNDER BAY    CLOUDY    46  37  71 E6        30.09
SIOUX LOOKOUT  CLOUDY    43  36  75 E3        30.11R
TORONTO        PTSUNNY   70  46  43 W9        29.94S
BIG TROUT LK   CLOUDY    36  21  55 N8G17     30.14R
PICKLE LAKE    PTSUNNY   46  21  36 W8        30.09S
DRYDEN         CLOUDY    43  36  75 NE9       30.10S
KENORA         CLOUDY    43  37  81 E12       30.10S
$$
                *** MANITOBA***

CITY           SKY/WX    TMP DP  RH WIND       PRES   REMARKS
BRANDON        CLOUDY    46  41  81 E14       30.11S
DAUPHIN        CLOUDY    45  39  81 E8        30.13F
ISLAND LAKE    MOSUNNY   45  25  45 NW8       30.17F
PILOT MOUND    NOT AVBL
THE PAS        PTSUNNY   46  34  61 SE6       30.12F
THOMPSON       MOSUNNY   43  23  45 E2        30.15F
WINNIPEG       CLOUDY    48  39  71 NE7       30.12S
LYNN LAKE      SUNNY     46  21  36 S12       30.08F
CHURCHILL      CLOUDY    36  23  60 NW13      30.15F
GILLAM         PTSUNNY   39  21  48 W8        30.17F
$$
                ***SASKATCHEWAN***

CITY           SKY/WX    TMP DP  RH WIND       PRES   REMARKS
ESTEVAN        MOSUNNY   61  50  67 E13       30.00F
KINDERSLEY     MOSUNNY   73  48  40 E12G18    29.85F
LLOYDMINSTER   MOSUNNY   66  48  52 SE12G17   29.84F
PRINCE ALBERT  CLOUDY    48  45  87 SE10G17   30.00F
REGINA         MOSUNNY   66  50  55 SE17G23   29.95
YORKTON        CLOUDY    48  41  76 SE12G18   30.06


USA.gov is the U.S. government's official web portal to all federal, state and local government web resources and services.